Location: Ariel
(45.9570°N, 122.5700°W)
Time: 07:03:47
(UTC-07:00)

Transit 2A Rocket - Pass Details

Date: 26 July 2019
Orbit: 590 x 913 km, 66.7° (Epoch: 22 August)

Event Time Altitude Azimuth Distance (km) Brightness Sun altitude
Exits shadow 04:50:57 - 262° (W) 2,907 7.5 -8.7°
Reaches altitude 10° 04:52:15 10° 269° (W) 2,515 7.2 -8.5°
Maximum altitude 04:56:49 23° 321° (NW) 1,698 6.8 -7.9°
Drops below altitude 10° 05:01:10 10° 13° (NNE) 2,370 8.4 -7.3°
Sets 05:04:00 0° 28° (NNE) 3,241 9.6 -6.9°
